N505ZG KCRQ-

Flight info

Callsign N505ZG
Flight time N/A
Altitude 10000
Route
Aircraft C208/L-SDFGR/C

Departure

Time 2026-05-05 00:15
Airport McClellan-Palomar Airport (KCRQ)

Arrival

Time N/A
Airport -
Time Latitude Longitude Altitude Speed Heading
2026-05-05 00:12 33.12626 -117.27683 330 ft 1 kts 44°
2026-05-05 00:12 33.12677 -117.27650 330 ft 14 kts 350°
2026-05-05 00:12 33.12793 -117.27663 330 ft 15 kts 52°
2026-05-05 00:12 33.12816 -117.27551 330 ft 12 kts 76°
2026-05-05 00:13 33.12837 -117.27425 330 ft 20 kts 78°
2026-05-05 00:13 33.12858 -117.27300 331 ft 5 kts 54°
2026-05-05 00:13 33.12861 -117.27296 331 ft 1 kts 51°
2026-05-05 00:13 33.12915 -117.27234 332 ft 18 kts 18°
2026-05-05 00:14 33.12944 -117.27272 333 ft 0 kts 258°
2026-05-05 00:14 33.12940 -117.27302 333 ft 19 kts 258°
2026-05-05 00:14 33.12884 -117.27643 337 ft 60 kts 257°
2026-05-05 00:14 33.12784 -117.28204 440 ft 75 kts 254°
2026-05-05 00:15 33.12626 -117.28831 630 ft 82 kts 249°
2026-05-05 00:15 33.12398 -117.29541 705 ft 99 kts 253°
2026-05-05 00:15 33.12631 -117.30210 1048 ft 103 kts 325°
2026-05-05 00:15 33.13367 -117.30462 1249 ft 116 kts 360°
2026-05-05 00:16 33.13966 -117.29808 1514 ft 129 kts 64°
2026-05-05 00:16 33.14346 -117.28806 1600 ft 138 kts 65°
2026-05-05 00:16 33.14714 -117.27683 1668 ft 149 kts 66°
2026-05-05 00:16 33.15111 -117.26592 2008 ft 137 kts 62°
2026-05-05 00:17 33.15483 -117.25589 2333 ft 128 kts 63°
2026-05-05 00:17 33.16044 -117.24776 2455 ft 130 kts 31°
2026-05-05 00:17 33.16828 -117.24200 2627 ft 132 kts 23°
2026-05-05 00:17 33.17691 -117.23850 2807 ft 131 kts 19°
2026-05-05 00:18 33.18460 -117.23263 3030 ft 129 kts 30°
2026-05-05 00:18 33.19179 -117.22680 3255 ft 124 kts 30°
2026-05-05 00:18 33.19872 -117.22099 3467 ft 120 kts 28°
2026-05-05 00:18 33.20595 -117.21504 3500 ft 134 kts 29°
2026-05-05 00:19 33.21395 -117.20831 3509 ft 144 kts 30°
2026-05-05 00:19 33.22231 -117.20125 3508 ft 154 kts 30°
2026-05-05 00:19 33.23150 -117.19352 3511 ft 162 kts 30°
2026-05-05 00:19 33.24068 -117.18575 3510 ft 165 kts 31°
2026-05-05 00:20 33.25015 -117.17775 3502 ft 168 kts 31°
2026-05-05 00:20 33.25986 -117.16958 3512 ft 171 kts 31°
2026-05-05 00:20 33.26964 -117.16130 3506 ft 171 kts 31°
2026-05-05 00:20 33.27923 -117.15320 3502 ft 170 kts 32°
2026-05-05 00:21 33.28877 -117.14516 3612 ft 164 kts 31°
2026-05-05 00:21 33.29791 -117.13753 3753 ft 158 kts 31°
2026-05-05 00:21 33.30683 -117.12994 3893 ft 156 kts 31°
2026-05-05 00:21 33.31554 -117.12256 4036 ft 153 kts 30°
2026-05-05 00:22 33.32434 -117.11515 4183 ft 153 kts 30°
2026-05-05 00:22 33.33306 -117.10782 4333 ft 153 kts 29°
2026-05-05 00:22 33.34180 -117.10047 4491 ft 154 kts 31°
2026-05-05 00:22 33.35056 -117.09299 4624 ft 153 kts 31°
2026-05-05 00:23 33.35904 -117.08581 4789 ft 148 kts 30°
2026-05-05 00:23 33.36738 -117.07881 4929 ft 148 kts 29°
2026-05-05 00:23 33.37577 -117.07170 5076 ft 147 kts 29°
2026-05-05 00:23 33.38417 -117.06461 5218 ft 146 kts 29°
2026-05-05 00:24 33.39222 -117.05784 5365 ft 140 kts 27°
2026-05-05 00:24 33.40017 -117.05115 5471 ft 144 kts 28°
2026-05-05 00:24 33.40871 -117.04388 5483 ft 155 kts 30°
2026-05-05 00:24 33.41776 -117.03615 5476 ft 163 kts 28°
2026-05-05 00:25 33.42720 -117.02816 5465 ft 167 kts 29°
2026-05-05 00:25 33.43665 -117.02015 5473 ft 169 kts 30°
2026-05-05 00:25 33.44635 -117.01193 5472 ft 170 kts 29°
2026-05-05 00:25 33.45606 -117.00379 5469 ft 173 kts 30°
2026-05-05 00:26 33.46587 -116.99543 5463 ft 173 kts 30°
2026-05-05 00:26 33.47574 -116.98705 5468 ft 173 kts 29°
2026-05-05 00:26 33.48550 -116.97876 5466 ft 174 kts 29°
2026-05-05 00:26 33.49531 -116.97008 5445 ft 176 kts 33°
2026-05-05 00:27 33.50518 -116.96137 5350 ft 177 kts 25°
2026-05-05 00:27 33.51449 -116.95276 5298 ft 161 kts 38°
2026-05-05 00:27 33.52171 -116.94301 5188 ft 155 kts 44°
2026-05-05 00:27 33.52879 -116.93332 5051 ft 152 kts 41°
2026-05-05 00:28 33.53572 -116.92379 4902 ft 153 kts 42°
2026-05-05 00:28 33.54308 -116.91475 4758 ft 150 kts 34°
2026-05-05 00:28 33.55094 -116.90699 4615 ft 148 kts 29°
2026-05-05 00:28 33.55929 -116.90043 4497 ft 144 kts 25°
2026-05-05 00:29 33.56763 -116.89402 4393 ft 145 kts 25°
2026-05-05 00:29 33.57620 -116.88738 4301 ft 147 kts 25°
2026-05-05 00:29 33.58474 -116.88089 4227 ft 145 kts 24°
2026-05-05 00:29 33.59284 -116.87391 4188 ft 141 kts 32°
2026-05-05 00:30 33.60037 -116.86702 4099 ft 134 kts 29°
2026-05-05 00:30 33.60805 -116.86591 3846 ft 109 kts 317°
2026-05-05 00:30 33.60788 -116.87434 3333 ft 117 kts 232°
2026-05-05 00:30 33.60228 -116.87990 2963 ft 95 kts 213°
2026-05-05 00:31 33.59743 -116.88360 2836 ft 69 kts 215°
2026-05-05 00:31 33.59546 -116.88500 2823 ft 7 kts 168°
2026-05-05 00:31 33.59510 -116.88467 2819 ft 9 kts 147°
2026-05-05 00:31 33.59510 -116.88456 2823 ft 0 kts 13°
2026-05-05 00:37 33.59554 -116.88489 2824 ft 18 kts 12°
2026-05-05 00:37 33.59706 -116.88385 2833 ft 32 kts 30°
2026-05-05 00:38 33.59866 -116.88268 2849 ft 21 kts 30°
2026-05-05 00:38 33.59998 -116.88167 2862 ft 24 kts 32°
2026-05-05 00:38 33.60115 -116.88094 2873 ft 8 kts 31°
2026-05-05 00:38 33.60109 -116.88072 2873 ft 7 kts 177°
2026-05-05 00:39 33.60101 -116.88077 2872 ft 0 kts 213°
2026-05-05 00:39 33.60099 -116.88078 2872 ft 6 kts 212°
2026-05-05 00:39 33.59906 -116.88232 2852 ft 58 kts 212°
2026-05-05 00:39 33.59480 -116.88541 2925 ft 79 kts 219°
2026-05-05 00:40 33.58980 -116.88928 3102 ft 88 kts 222°
2026-05-05 00:40 33.58622 -116.89490 3429 ft 84 kts 240°
2026-05-05 00:40 33.58501 -116.90186 3618 ft 93 kts 270°
2026-05-05 00:40 33.58518 -116.91046 3724 ft 110 kts 267°
2026-05-05 00:41 33.58503 -116.92020 3795 ft 124 kts 264°
2026-05-05 00:41 33.58386 -116.93068 3887 ft 126 kts 258°
2026-05-05 00:41 33.58274 -116.93732 4033 ft 119 kts 258°
2026-05-05 00:41 33.58076 -116.94675 4298 ft 117 kts 258°
2026-05-05 00:42 33.57972 -116.95657 4468 ft 121 kts 265°
2026-05-05 00:42 33.57902 -116.96701 4483 ft 130 kts 264°
2026-05-05 00:42 33.57892 -116.97813 4477 ft 136 kts 271°
2026-05-05 00:42 33.57923 -116.98981 4498 ft 141 kts 270°
2026-05-05 00:43 33.57932 -117.00152 4587 ft 140 kts 267°
2026-05-05 00:43 33.57855 -117.01313 4633 ft 139 kts 265°
2026-05-05 00:43 33.58011 -117.02499 4652 ft 148 kts 283°
2026-05-05 00:43 33.58252 -117.03711 4751 ft 150 kts 276°
2026-05-05 00:44 33.58398 -117.04939 4671 ft 144 kts 278°
2026-05-05 00:44 33.58536 -117.06069 4386 ft 131 kts 276°
2026-05-05 00:44 33.58669 -117.07135 3963 ft 129 kts 276°
2026-05-05 00:44 33.58877 -117.08153 3653 ft 122 kts 282°
2026-05-05 00:45 33.59088 -117.09111 3282 ft 118 kts 279°
2026-05-05 00:45 33.59287 -117.10057 2877 ft 118 kts 284°
2026-05-05 00:45 33.59522 -117.10991 2505 ft 115 kts 285°
2026-05-05 00:45 33.59570 -117.11893 2158 ft 106 kts 243°
2026-05-05 00:46 33.59011 -117.12402 1786 ft 93 kts 210°
2026-05-05 00:46 33.58416 -117.12588 1428 ft 82 kts 204°
2026-05-05 00:46 33.57933 -117.12713 1362 ft 57 kts 193°
2026-05-05 00:46 33.57745 -117.12771 1358 ft 12 kts 229°
2026-05-05 00:47 33.57773 -117.12825 1359 ft 10 kts 295°
2026-05-05 00:47 33.57781 -117.12885 1361 ft 3 kts 192°
2026-05-05 00:47 33.57777 -117.12886 1360 ft 0 kts 189°
2026-05-05 00:51 33.57746 -117.12857 1360 ft 10 kts 33°
2026-05-05 00:51 33.57800 -117.12831 1360 ft 11 kts 15°
2026-05-05 00:51 33.57901 -117.12805 1360 ft 19 kts 10°
2026-05-05 00:51 33.58055 -117.12765 1360 ft 27 kts 14°
2026-05-05 00:52 33.58221 -117.12715 1365 ft 15 kts 46°
2026-05-05 00:52 33.58189 -117.12648 1364 ft 13 kts 191°
2026-05-05 00:52 33.58038 -117.12689 1360 ft 40 kts 194°
2026-05-05 00:52 33.57623 -117.12788 1357 ft 79 kts 197°
2026-05-05 00:53 33.57579 -117.12797 1359 ft 0 kts 196°